RH
86 68 50 47 44 47 44 40 44 36 30 26 30 23 23 32 43 44 86 88 73 92 98 95 81 89 91 93 84 74 75 78 89 94 97 96 95 93 91 90 90 89 86 84 83 88 90 91 90
84 60 51 54 46 47 42 43 43 36 34 37 29 42 50 43 75 89 95 92 79 97 99 98 88 88 88 89 89 79 82 84 84 89 93 95 96 96 91 92 93 86 83 82 87 89 89 86 81
75 64 56 54 52 44 37 43 38 38 37 30 31 38 54 59 85 86 90 97 96 99 99 96 89 87 85 85 86 85 86 86 87 88 87 90 96 98 95 95 87 73 76 87 92 94 94 84 76
72 66 60 60 52 47 36 41 45 40 37 37 36 37 60 81 84 91 95 100 100 100 98 92 86 83 86 87 88 86 84 86 86 85 85 92 93 92 98 75 68 61 50 80 92 90 77 73 89
66 76 78 79 61 51 48 42 42 42 41 38 38 47 68 89 87 96 97 100 100 99 97 92 85 84 84 89 83 84 86 77 81 79 90 94 89 83 96 83 68 68 54 60 77 78 74 73 74
86 77 74 76 63 56 46 42 40 40 43 37 39 46 76 94 93 96 100 99 100 99 97 96 85 86 84 83 84 83 76 80 78 81 84 96 87 75 86 94 76 72 69 60 73 74 75 74 76
75 82 82 60 61 58 52 40 40 42 40 41 38 59 60 85 95 96 94 100 100 97 88 97 90 86 85 84 84 84 80 86 81 81 82 82 86 65 76 94 89 80 83 74 64 74 74 74 74
81 79 72 69 64 59 45 40 39 36 42 39 39 48 46 78 95 99 95 90 89 94 94 86 88 94 96 87 87 82 80 75 76 78 78 74 63 67 72 94 86 90 86 84 74 62 69 74 73
77 91 76 66 66 53 42 42 42 43 45 43 48 66 69 94 99 99 100 97 94 96 98 90 88 91 87 90 88 84 78 76 77 76 72 66 55 67 65 86 90 91 91 82 81 68 52 58 67
86 79 69 59 55 52 43 42 48 45 48 49 46 50 51 90 99 99 99 99 100 96 95 99 93 89 90 90 91 84 79 76 72 56 52 50 70 70 72 74 87 85 92 91 85 82 71 52 61
79 78 61 57 53 47 51 56 47 47 51 43 42 50 50 54 61 97 95 97 97 93 95 96 100 92 97 97 89 84 78 74 73 65 49 50 71 72 72 78 86 85 91 91 87 82 80 72 53
85 70 62 58 59 61 60 56 55 51 43 44 48 48 48 51 58 63 89 93 90 90 90 92 99 95 96 88 88 82 76 75 73 73 67 44 64 76 81 87 88 88 89 91 87 84 82 80 71
88 70 63 56 65 62 60 61 53 56 55 54 55 56 53 52 54 65 69 93 87 93 89 90 91 99 97 91 87 82 77 75 73 75 74 70 50 61 78 82 83 83 83 83 81 78 77 79 79
74 68 67 64 59 62 59 59 54 48 48 54 51 53 57 52 52 62 91 96 93 91 94 96 93 96 98 93 89 83 78 75 75 76 75 76 74 68 56 73 76 75 68 75 79 75 70 73 78
71 73 76 74 65 59 52 66 65 49 64 56 56 51 54 54 46 46 84 96 89 94 98 98 99 99 98 93 91 86 79 76 75 77 78 78 79 78 77 55 54 58 60 68 72 74 72 68 68
79 72 89 67 67 58 54 70 53 50 62 53 56 52 52 53 49 42 48 82 73 72 72 87 73 96 95 92 89 88 82 79 77 77 79 79 80 80 80 77 62 61 64 69 71 73 72 69 66
79 88 81 78 69 63 59 68 50 55 68 53 59 48 51 53 46 39 40 77 69 59 60 61 69 71 80 87 88 88 82 81 80 80 80 79 79 80 81 81 74 71 70 68 71 68 70 69 70
79 80 78 75 79 64 68 62 53 63 68 54 66 56 53 53 51 42 32 76 82 61 62 69 73 73 72 75 83 92 90 86 84 82 81 78 77 78 80 79 78 76 76 73 69 70 69 71 72
63 80 77 69 70 66 64 66 57 68 75 69 71 68 62 53 49 43 33 35 76 78 85 65 61 65 69 85 92 96 95 88 84 82 81 81 77 78 79 77 78 80 79 74 71 70 72 73 72
64 79 79 73 67 70 70 67 60 57 74 70 67 68 58 52 48 41 33 28 27 60 64 63 83 84 76 96 94 92 89 88 84 81 83 82 79 76 78 82 80 78 82 80 77 74 74 76 75
74 78 84 74 72 66 74 76 68 60 53 57 58 62 52 43 44 40 35 32 28 26 54 69 71 85 92 96 96 91 88 89 88 88 85 76 75 71 70 74 74 72 75 79 79 76 74 84 79
84 61 65 78 76 78 69 78 70 65 62 55 50 50 55 48 42 38 35 32 28 27 30 49 69 83 86 91 94 92 90 90 84 81 78 78 81 86 77 72 71 71 73 75 74 75 76 82 91
97 54 61 72 79 76 79 79 66 63 65 59 54 51 44 42 40 38 36 34 34 34 35 40 48 74 90 98 98 96 96 95 94 93 90 87 86 89 92 92 88 82 77 78 78 79 80 82 88
93 73 74 82 79 93 76 79 68 64 54 52 47 48 45 41 38 36 35 40 44 41 42 41 44 51 57 64 77 91 97 98 99 100 99 97 96 94 91 92 95 95 95 91 88 88 90 89 91
100 75 94 93 94 86 77 86 62 58 53 45 43 44 46 45 41 39 46 60 54 51 47 47 43 42 40 37 36 36 37 38 41 51 62 73 79 83 86 90 93 92 90 92 95 99 99 96 96
81 74 85 91 90 87 84 92 59 51 50 44 45 40 42 52 47 44 50 59 60 53 56 54 54 52 50 47 45 45 43 41 40 42 45 49 57 62 63 66 77 86 95 99 99 97 98 100 99
98 92 64 84 80 82 77 66 47 49 49 49 47 48 48 45 50 50 57 65 67 66 64 60 58 60 59 55 55 55 55 57 59 61 64 66 67 69 73 79 83 94 99 100 100 99 100 100 100
97 78 88 89 91 84 71 66 48 41 40 43 46 52 53 61 64 72 74 74 73 71 70 70 67 66 68 66 65 65 67 68 70 74 78 86 90 98 98 95 95 98 99 99 100 99 100 100 95
98 100 88 80 82 78 75 53 48 44 41 42 45 54 60 73 81 83 78 77 76 74 72 73 71 69 70 70 71 72 73 74 75 75 76 79 85 91 96 94 93 99 100 98 99 98 95 94 91
86 84 76 86 94 87 83 58 40 44 50 53 52 66 73 79 84 81 78 80 80 80 80 79 76 73 73 72 72 72 72 72 72 72 73 75 80 83 85 86 87 87 88 91 96 96 98 96 98
Wind_Speed
4 3 1 4 2 2 3 4 1 2 3 2 1 4 3 2 4 2 4 13 32 31 28 28 27 24 22 20 19 19 18 16 16 15 15 15 15 16 16 16 15 15 15 16 17 17 18 18 18
4 2 3 2 3 4 4 3 5 3 2 7 3 2 2 2 1 3 14 12 29 30 28 26 27 25 22 20 19 18 16 15 14 14 14 14 14 15 16 16 15 15 15 16 17 17 17 16 15
4 4 3 3 3 8 4 5 5 2 1 2 2 1 1 3 1 10 4 18 28 27 27 27 27 25 23 20 17 17 16 15 15 15 14 14 13 14 14 15 14 14 15 16 17 16 16 15 14
6 2 3 3 8 4 4 6 5 3 2 5 3 3 1 4 1 5 15 24 28 27 26 28 28 26 23 22 18 17 16 16 13 11 12 13 12 13 13 13 13 13 14 15 15 15 15 14 15
3 1 3 3 5 3 3 6 4 4 3 3 3 3 1 5 4 8 20 21 23 26 25 27 26 26 23 22 19 16 16 12 12 12 13 12 11 12 13 12 11 12 13 13 13 13 13 14 14
2 0 5 11 11 4 3 6 4 3 0 2 4 4 3 4 4 12 18 24 19 24 25 24 25 24 23 21 19 18 14 13 11 13 12 10 9 11 13 13 11 11 11 12 12 12 11 12 12
4 4 6 16 13 6 6 8 7 5 3 2 3 3 3 4 3 12 18 20 19 23 26 23 24 23 23 22 20 18 16 15 13 11 7 6 8 10 14 12 11 10 10 10 10 9 9 9 9
2 2 11 8 14 15 6 6 8 6 3 1 2 4 2 5 6 12 18 18 18 24 24 25 24 23 22 22 21 18 18 13 10 8 5 1 8 8 12 13 10 9 8 9 8 8 8 7 7
2 3 12 19 13 9 4 8 2 2 6 2 4 4 5 8 10 14 16 18 21 22 20 24 26 24 24 22 21 19 16 12 9 7 7 7 9 10 12 13 11 9 7 7 6 5 6 6 5
5 9 10 3 6 6 5 5 8 5 4 2 3 3 16 13 10 11 11 13 17 21 20 23 25 24 24 23 22 20 16 12 8 7 8 10 10 11 12 14 12 9 8 6 5 4 4 4 5
5 7 6 3 6 5 6 5 5 8 5 7 7 6 11 14 11 4 6 11 15 18 18 21 22 25 22 21 24 21 18 13 9 8 8 10 10 11 13 14 13 11 9 8 7 5 4 3 4
4 7 3 1 2 5 6 6 5 7 5 8 8 8 9 6 8 7 11 13 18 21 20 22 20 26 23 23 24 22 19 15 11 11 9 10 12 12 14 16 16 13 11 9 8 7 5 4 4
6 4 6 3 3 3 8 5 4 6 8 7 6 4 11 4 5 9 11 14 21 21 22 23 25 26 26 24 24 22 20 16 13 12 11 10 11 12 14 14 13 11 10 10 8 7 7 7 6
8 5 7 4 3 2 5 3 4 3 6 9 8 4 6 6 7 12 8 15 20 22 22 22 27 27 27 26 24 23 21 17 15 13 11 11 11 10 13 14 14 13 11 10 9 8 7 8 9
2 12 2 4 6 4 4 3 7 1 3 7 9 9 6 3 8 12 8 15 22 25 25 25 27 27 29 27 24 24 22 19 17 15 13 13 13 12 11 14 14 13 11 10 10 10 10 9 10
5 6 7 5 7 4 5 10 4 5 4 7 9 7 5 2 5 17 13 16 18 20 23 21 22 28 29 28 26 23 23 21 19 17 16 15 15 14 14 13 14 13 12 11 11 11 10 11 10
9 9 14 4 7 3 4 2 3 4 5 7 6 9 5 2 6 14 12 16 18 20 18 19 21 23 28 28 26 24 22 22 21 20 18 17 16 16 17 16 14 13 14 14 12 12 12 12 11
17 8 9 9 6 4 5 4 2 6 7 9 6 5 8 4 7 12 10 10 13 15 18 18 21 21 23 25 26 24 23 22 22 21 21 18 18 18 19 18 17 17 17 17 16 15 15 15 13
13 6 12 6 4 7 8 6 7 4 5 8 7 7 6 9 8 10 13 7 9 10 15 16 18 19 22 23 23 23 25 26 25 24 22 21 20 21 22 21 21 21 21 20 18 18 17 16 16
14 8 4 3 3 5 6 10 8 6 9 10 10 8 8 5 5 7 10 6 6 10 10 12 17 19 21 23 22 21 22 25 29 28 26 24 24 24 25 25 25 23 24 22 21 21 18 16 17
8 12 5 7 4 2 6 6 7 4 4 7 9 9 9 13 9 6 10 13 8 10 16 17 17 21 23 23 22 18 16 17 14 21 22 22 23 23 24 24 24 23 22 25 23 22 21 16 16
7 12 8 13 10 6 1 4 5 8 9 9 15 11 11 11 6 2 3 9 12 14 14 16 18 19 20 21 24 23 21 17 18 19 20 21 22 21 22 25 25 24 23 23 23 21 22 21 16
5 15 7 4 5 3 1 2 4 1 13 13 11 11 13 10 8 8 7 11 12 11 12 14 14 17 19 19 21 22 20 18 16 15 15 13 15 18 22 24 24 25 25 25 24 22 22 21 20
8 11 10 4 3 2 5 5 4 4 8 11 14 16 16 15 13 11 10 9 7 9 11 14 13 13 14 15 16 17 19 19 17 17 16 15 16 15 16 17 20 21 22 22 22 20 19 18 17
14 17 5 4 3 4 1 4 7 5 6 7 10 14 13 13 14 13 10 13 14 13 13 12 15 14 11 10 9 9 10 10 10 11 12 13 14 14 14 16 18 20 20 20 20 18 17 16 16
16 6 4 7 6 4 2 5 5 6 6 6 5 5 3 7 7 10 12 16 21 21 16 15 13 13 11 9 7 5 4 6 7 8 9 9 10 11 12 12 12 15 18 18 18 16 15 14 14
1 2 3 6 3 3 3 5 8 6 7 3 7 6 7 7 7 10 13 17 20 21 19 17 15 11 10 9 7 5 4 4 3 3 5 6 7 8 8 9 9 10 10 14 16 16 18 16 15
3 3 3 2 4 2 0 3 3 3 2 5 4 7 6 4 7 8 11 15 17 18 17 16 14 14 11 9 8 7 5 4 4 4 3 3 3 4 4 4 5 5 7 11 15 16 15 14 10
2 2 4 4 2 3 3 3 4 3 3 7 7 6 6 5 7 8 10 13 16 16 16 14 13 13 13 11 9 8 6 5 4 3 3 3 3 4 5 6 6 6 7 8 10 10 11 11 7
0 4 3 4 4 2 2 3 3 4 5 5 7 4 2 5 8 10 14 16 14 12 10 11 11 11 11 11 10 8 6 4 3 2 2 3 3 4 4 5 6 6 7 8 9 9 9 7 7
Wind_Direction
287 326 70 65 149 73 201 225 233 184 167 201 248 202 234 292 173 197 144 159 165 162 164 166 168 164 159 154 150 147 140 135 131 127 121 116 112 107 106 105 101 99 99 100 103 105 102 99 96
252 154 78 95 135 175 218 203 208 186 304 303 224 206 240 262 17 110 133 168 165 161 164 166 170 166 162 159 155 150 141 137 134 130 127 124 118 115 111 108 104 101 102 105 107 106 103 100 98
190 164 119 144 159 205 198 189 170 184 340 13 73 347 342 315 1 170 185 158 159 161 165 168 169 165 166 159 157 154 150 146 142 136 133 134 128 127 118 115 106 99 105 109 109 106 103 98 99
167 87 80 169 213 233 197 159 154 150 26 35 332 85 18 11 259 210 158 156 157 160 164 169 168 168 166 159 166 163 153 148 147 145 146 144 139 136 136 123 111 101 103 114 114 111 105 100 102
117 98 151 190 223 237 208 160 147 95 117 354 8 6 44 22 352 156 152 157 157 160 165 167 169 170 169 166 169 160 152 149 145 142 140 138 141 146 146 138 123 109 106 117 120 116 108 102 104
127 187 187 208 212 191 195 169 151 102 163 12 36 349 50 13 100 149 155 158 158 163 166 167 172 172 169 168 166 160 152 148 144 143 146 139 143 154 154 157 139 122 114 120 128 125 115 105 104
221 177 197 218 214 217 199 154 154 132 151 79 129 40 348 35 113 157 164 160 159 166 170 170 173 175 170 167 167 163 154 157 154 161 164 157 158 163 163 161 157 140 128 124 132 135 127 115 107
131 174 193 214 207 231 209 167 152 156 180 105 96 43 2 33 162 161 159 167 171 173 173 174 176 173 169 168 172 170 161 173 178 198 209 236 178 165 168 160 165 156 145 134 128 135 142 136 125
132 182 213 215 185 207 185 204 124 79 122 46 111 95 331 298 179 160 157 168 174 179 178 177 177 177 173 170 172 169 167 168 179 202 216 183 164 164 168 167 167 172 167 154 143 139 154 168 168
189 215 220 190 177 191 173 174 146 158 136 115 136 129 52 49 157 159 167 168 179 178 180 182 180 179 176 172 172 173 171 173 179 181 173 169 166 170 169 170 172 184 178 186 174 171 169 174 189
208 214 197 5 189 157 171 158 152 150 197 186 176 122 78 57 35 318 225 179 185 182 184 189 181 184 181 177 176 178 179 177 175 175 173 173 168 164 170 165 178 190 196 193 199 206 214 210 209
218 197 193 31 260 153 178 140 187 190 197 171 151 136 104 73 38 271 238 201 188 191 192 196 192 189 189 186 184 184 185 186 184 182 179 181 181 177 176 177 190 201 207 214 228 230 239 254 265
217 184 167 170 162 253 141 174 191 206 135 139 144 124 109 91 47 357 230 217 199 198 197 201 200 198 196 194 193 191 193 195 194 192 192 188 193 195 193 196 204 209 217 224 233 242 252 260 269
196 232 182 188 159 220 159 188 157 213 171 189 194 161 100 72 22 355 225 215 200 204 201 198 206 204 202 200 199 199 200 207 205 206 210 209 206 208 213 214 217 221 228 232 238 249 262 264 264
199 196 227 218 186 200 155 184 223 189 165 209 213 191 126 62 17 340 270 224 213 213 204 201 207 209 204 205 204 207 207 213 218 220 221 225 223 222 225 225 227 230 235 238 242 249 256 266 268
158 179 186 206 169 201 187 222 213 233 218 226 215 177 128 70 15 326 283 238 227 218 211 210 213 207 207 208 208 211 215 219 224 228 231 232 233 233 233 232 233 234 237 242 246 251 257 262 266
197 183 192 175 188 117 158 232 239 200 216 257 268 221 152 40 342 314 291 244 221 220 211 213 210 212 208 209 211 216 221 225 230 232 236 238 238 238 239 240 241 239 241 244 249 254 256 260 265
185 169 175 175 181 186 154 232 339 206 210 229 253 271 180 147 252 286 298 242 226 221 224 214 207 213 217 215 214 221 227 232 235 238 240 242 241 241 241 244 245 244 245 244 244 250 254 256 263
162 123 171 164 146 169 205 218 245 206 219 239 229 212 209 188 228 266 279 240 206 207 217 210 223 222 226 218 215 222 227 232 237 237 238 241 244 245 244 246 246 245 245 246 247 249 254 260 263
156 147 143 98 106 177 184 224 241 202 216 214 211 225 211 226 262 253 251 233 252 223 223 212 227 227 224 220 221 222 231 239 239 241 242 245 246 250 248 247 249 250 249 249 248 247 250 257 260
189 162 154 157 113 67 136 262 247 219 235 217 223 228 225 213 238 249 268 268 259 240 228 223 226 230 231 226 220 221 231 237 237 238 239 241 248 250 250 250 252 252 249 252 251 250 246 247 256
179 187 140 141 163 186 340 247 245 214 217 219 222 218 231 248 240 107 226 265 268 268 245 234 224 224 226 228 226 228 227 230 242 248 253 255 254 252 248 247 250 253 251 251 254 254 250 245 242
261 166 147 99 97 118 306 268 265 150 226 223 233 216 220 226 242 244 240 251 247 240 227 220 212 213 218 217 218 222 230 239 247 252 255 258 254 251 249 247 248 247 249 252 252 254 250 248 245
292 118 103 93 112 234 200 189 256 198 205 222 222 219 215 212 219 234 218 200 207 209 209 202 189 190 201 205 212 221 229 238 246 252 256 257 256 254 251 248 248 250 249 249 250 250 248 244 243
261 150 135 158 195 220 195 184 260 242 235 221 213 222 219 209 212 206 189 175 180 184 183 184 173 166 178 184 193 205 217 228 236 245 250 253 255 253 248 245 245 247 249 248 244 238 239 235 231
152 170 153 165 174 164 88 221 241 236 247 218 257 268 249 216 204 196 183 179 180 174 175 172 165 155 157 158 162 179 208 229 239 246 246 244 245 249 253 252 249 247 244 243 238 230 226 226 217
127 56 156 107 40 101 191 266 283 260 283 293 265 269 248 245 220 192 182 178 169 167 168 169 158 154 152 152 153 152 151 154 160 191 213 222 234 242 256 263 261 259 244 239 230 221 216 199 199
270 205 81 17 121 180 0 278 235 42 335 317 288 251 252 224 202 165 154 146 159 160 160 159 154 150 146 145 148 148 147 146 149 155 155 172 182 181 196 212 210 206 206 212 212 195 186 188 187
181 192 62 101 69 140 141 260 212 212 288 289 293 274 255 193 165 140 118 129 150 153 153 155 152 149 147 144 142 140 142 153 167 180 190 198 201 194 189 196 199 183 182 181 180 183 185 181 185
38 227 152 125 167 62 106 282 184 226 264 278 291 281 202 173 148 135 133 139 141 143 147 151 152 153 149 146 148 147 147 145 154 178 205 210 216 218 214 199 194 198 202 197 190 184 183 183 173